Location: Antin
(43.3330°N, 0.2804°E)
Time: 04:15:27
(UTC+00:00)

H-2A R/B - Pass Details

Date: 16 October 2021
Orbit: 577 x 654 km, 98.5° (Epoch: 02 December)

Event Time Altitude Azimuth Distance (km) Brightness Sun altitude
Rises 19:50:35 0° 1° (N) 2,803 5.6 -29.0°
Reaches altitude 10° 19:53:01 10° 347° (NNW) 1,901 4.9 -29.5°
Maximum altitude 19:56:20 24° 294° (WNW) 1,221 4.2 -30.0°
Drops below altitude 10° 19:59:39 10° 240° (WSW) 1,903 5.0 -30.6°
Sets 20:02:06 0° 226° (SW) 2,808 5.8 -31.0°
